Wetterdaten: Mittwoch, 15.06.2011
Datum Zeit Temp. A. Feuchte A. Luftdruck Regen Wind Richtung Richtung Sonnenschein UV Solar Windben
15.06.2011 00:00 15,1 C 83 % 1018,0 hPa 0,0 mm 0,0 km/h (0 Bft) N 360 0 min 0 UV-I 0 W/m 1,6 km/h (1 Bft)
15.06.2011 00:10 14,9 C 84 % 1017,9 hPa 0,0 mm 0,0 km/h (0 Bft) N-NO 22 0 min 0 UV-I 0 W/m 3,2 km/h (1 Bft)
15.06.2011 00:20 14,8 C 84 % 1017,9 hPa 0,0 mm 0,0 km/h (0 Bft) NO 45 0 min 0 UV-I 0 W/m 3,2 km/h (1 Bft)
15.06.2011 00:30 14,7 C 84 % 1017,9 hPa 0,0 mm 0,0 km/h (0 Bft) NO 45 0 min 0 UV-I 0 W/m 1,6 km/h (1 Bft)
15.06.2011 00:40 14,4 C 85 % 1017,9 hPa 0,0 mm 0,0 km/h (0 Bft) NO 45 0 min 0 UV-I 0 W/m 1,6 km/h (1 Bft)
15.06.2011 00:50 14,2 C 86 % 1017,8 hPa 0,0 mm 0,0 km/h (0 Bft) N 0 0 min 0 UV-I 0 W/m 0,0 km/h (0 Bft)
15.06.2011 01:00 14,1 C 86 % 1017,8 hPa 0,0 mm 0,0 km/h (0 Bft) N 0 0 min 0 UV-I 0 W/m 0,0 km/h (0 Bft)
15.06.2011 01:10 13,9 C 86 % 1017,7 hPa 0,0 mm 0,0 km/h (0 Bft) NO 45 0 min 0 UV-I 0 W/m 1,6 km/h (1 Bft)
15.06.2011 01:20 13,8 C 86 % 1017,7 hPa 0,0 mm 0,0 km/h (0 Bft) N 0 0 min 0 UV-I 0 W/m 0,0 km/h (0 Bft)
15.06.2011 01:30 13,7 C 87 % 1017,7 hPa 0,0 mm 0,0 km/h (0 Bft) NO 45 0 min 0 UV-I 0 W/m 1,6 km/h (1 Bft)
15.06.2011 01:40 13,7 C 87 % 1017,7 hPa 0,0 mm 0,0 km/h (0 Bft) N 0 0 min 0 UV-I 0 W/m 0,0 km/h (0 Bft)
15.06.2011 01:50 13,5 C 87 % 1017,6 hPa 0,0 mm 0,0 km/h (0 Bft) NO 45 0 min 0 UV-I 0 W/m 1,6 km/h (1 Bft)
15.06.2011 02:00 13,2 C 87 % 1017,5 hPa 0,0 mm 0,0 km/h (0 Bft) N 0 0 min 0 UV-I 0 W/m 0,0 km/h (0 Bft)
15.06.2011 02:10 13,1 C 88 % 1017,7 hPa 0,0 mm 0,0 km/h (0 Bft) N 0 0 min 0 UV-I 0 W/m 0,0 km/h (0 Bft)
15.06.2011 02:20 13,0 C 88 % 1017,6 hPa 0,0 mm 0,0 km/h (0 Bft) N 0 0 min 0 UV-I 0 W/m 0,0 km/h (0 Bft)
15.06.2011 02:30 12,8 C 88 % 1017,5 hPa 0,0 mm 0,0 km/h (0 Bft) N 0 0 min 0 UV-I 0 W/m 0,0 km/h (0 Bft)
15.06.2011 02:40 12,7 C 88 % 1017,5 hPa 0,0 mm 0,0 km/h (0 Bft) N 0 0 min 0 UV-I 0 W/m 0,0 km/h (0 Bft)
15.06.2011 02:50 12,6 C 89 % 1017,5 hPa 0,0 mm 0,0 km/h (0 Bft) NO 45 0 min 0 UV-I 0 W/m 1,6 km/h (1 Bft)
15.06.2011 03:00 12,6 C 89 % 1017,4 hPa 0,0 mm 0,0 km/h (0 Bft) N 0 0 min 0 UV-I 0 W/m 0,0 km/h (0 Bft)
15.06.2011 03:10 12,4 C 89 % 1017,3 hPa 0,0 mm 0,0 km/h (0 Bft) N 0 0 min 0 UV-I 0 W/m 0,0 km/h (0 Bft)
15.06.2011 03:20 12,4 C 89 % 1017,4 hPa 0,0 mm 0,0 km/h (0 Bft) N 0 0 min 0 UV-I 0 W/m 0,0 km/h (0 Bft)
15.06.2011 03:30 12,4 C 89 % 1017,3 hPa 0,0 mm 0,0 km/h (0 Bft) N 0 0 min 0 UV-I 0 W/m 0,0 km/h (0 Bft)
15.06.2011 03:40 12,4 C 89 % 1017,2 hPa 0,0 mm 0,0 km/h (0 Bft) N 0 0 min 0 UV-I 0 W/m 0,0 km/h (0 Bft)
15.06.2011 03:50 12,3 C 89 % 1017,1 hPa 0,0 mm 0,0 km/h (0 Bft) N 0 0 min 0 UV-I 0 W/m 0,0 km/h (0 Bft)
15.06.2011 04:00 12,2 C 89 % 1017,1 hPa 0,0 mm 0,0 km/h (0 Bft) N 0 0 min 0 UV-I 0 W/m 0,0 km/h (0 Bft)
15.06.2011 04:10 12,2 C 89 % 1017,1 hPa 0,0 mm 0,0 km/h (0 Bft) N 0 0 min 0 UV-I 0 W/m 0,0 km/h (0 Bft)
15.06.2011 04:20 12,2 C 90 % 1017,3 hPa 0,0 mm 0,0 km/h (0 Bft) N 0 0 min 0 UV-I 0 W/m 0,0 km/h (0 Bft)
15.06.2011 04:30 12,2 C 90 % 1017,2 hPa 0,0 mm 0,0 km/h (0 Bft) N 0 0 min 0 UV-I 0 W/m 0,0 km/h (0 Bft)
15.06.2011 04:40 12,2 C 90 % 1017,2 hPa 0,0 mm 0,0 km/h (0 Bft) N 0 0 min 0 UV-I 0 W/m 0,0 km/h (0 Bft)
15.06.2011 04:50 12,3 C 89 % 1017,1 hPa 0,0 mm 0,0 km/h (0 Bft) N 0 0 min 0 UV-I 0 W/m 0,0 km/h (0 Bft)
15.06.2011 05:00 12,1 C 90 % 1017,0 hPa 0,0 mm 0,0 km/h (0 Bft) N 0 0 min 0 UV-I 0 W/m 0,0 km/h (0 Bft)
15.06.2011 05:10 12,1 C 90 % 1017,0 hPa 0,0 mm 0,0 km/h (0 Bft) NO 45 0 min 0 UV-I 0 W/m 1,6 km/h (1 Bft)
15.06.2011 05:20 12,1 C 90 % 1017,1 hPa 0,0 mm 0,0 km/h (0 Bft) N 0 0 min 0 UV-I 0 W/m 0,0 km/h (0 Bft)
15.06.2011 05:30 12,0 C 90 % 1017,1 hPa 0,0 mm 0,0 km/h (0 Bft) N 0 0 min 0 UV-I 7 W/m 0,0 km/h (0 Bft)
15.06.2011 05:40 12,0 C 90 % 1017,0 hPa 0,0 mm 0,0 km/h (0 Bft) N 0 0 min 0 UV-I 11 W/m 0,0 km/h (0 Bft)
15.06.2011 05:50 12,0 C 90 % 1017,1 hPa 0,0 mm 0,0 km/h (0 Bft) NO 45 0 min 0 UV-I 16 W/m 1,6 km/h (1 Bft)
15.06.2011 06:00 12,1 C 90 % 1017,1 hPa 0,0 mm 0,0 km/h (0 Bft) NO 45 0 min 0 UV-I 18 W/m 3,2 km/h (1 Bft)
15.06.2011 06:10 12,2 C 90 % 1017,3 hPa 0,0 mm 0,0 km/h (0 Bft) NO 45 0 min 0 UV-I 26 W/m 1,6 km/h (1 Bft)
15.06.2011 06:20 12,3 C 90 % 1017,3 hPa 0,0 mm 0,0 km/h (0 Bft) N 0 0 min 0 UV-I 39 W/m 0,0 km/h (0 Bft)
15.06.2011 06:30 12,5 C 90 % 1017,3 hPa 0,0 mm 0,0 km/h (0 Bft) NO 45 0 min 0 UV-I 56 W/m 1,6 km/h (1 Bft)
15.06.2011 06:40 12,7 C 90 % 1017,2 hPa 0,0 mm 0,0 km/h (0 Bft) NO 45 0 min 0 UV-I 72 W/m 1,6 km/h (1 Bft)
15.06.2011 06:50 13,1 C 89 % 1017,2 hPa 0,0 mm 0,0 km/h (0 Bft) NO 45 0 min 0 UV-I 98 W/m 1,6 km/h (1 Bft)
15.06.2011 07:00 13,3 C 89 % 1017,0 hPa 0,0 mm 0,0 km/h (0 Bft) NO 45 0 min 1 UV-I 91 W/m 4,8 km/h (1 Bft)
15.06.2011 07:10 13,6 C 88 % 1017,1 hPa 0,0 mm 0,0 km/h (0 Bft) O-NO 67 0 min 1 UV-I 123 W/m 4,8 km/h (1 Bft)
15.06.2011 07:20 13,8 C 88 % 1017,0 hPa 0,0 mm 0,0 km/h (0 Bft) O-NO 67 0 min 1 UV-I 153 W/m 3,2 km/h (1 Bft)
15.06.2011 07:30 14,4 C 87 % 1016,9 hPa 0,0 mm 0,0 km/h (0 Bft) O-NO 67 10 min 1 UV-I 204 W/m 3,2 km/h (1 Bft)
15.06.2011 07:40 14,9 C 85 % 1016,7 hPa 0,0 mm 0,0 km/h (0 Bft) O-NO 67 10 min 1 UV-I 202 W/m 4,8 km/h (1 Bft)
15.06.2011 07:50 15,3 C 84 % 1016,6 hPa 0,0 mm 0,0 km/h (0 Bft) O-NO 67 10 min 1 UV-I 297 W/m 4,8 km/h (1 Bft)
15.06.2011 08:00 16,1 C 82 % 1016,8 hPa 0,0 mm 0,0 km/h (0 Bft) O-NO 68 10 min 1 UV-I 288 W/m 1,6 km/h (1 Bft)
15.06.2011 08:10 16,7 C 79 % 1016,9 hPa 0,0 mm 0,0 km/h (0 Bft) O-NO 67 10 min 1 UV-I 283 W/m 1,6 km/h (1 Bft)
15.06.2011 08:20 17,3 C 78 % 1016,7 hPa 0,0 mm 0,0 km/h (0 Bft) O-NO 67 10 min 1 UV-I 264 W/m 1,6 km/h (1 Bft)
15.06.2011 08:30 17,7 C 77 % 1016,5 hPa 0,0 mm 0,0 km/h (0 Bft) O-NO 67 10 min 1 UV-I 257 W/m 3,2 km/h (1 Bft)
15.06.2011 08:40 17,9 C 77 % 1016,6 hPa 0,0 mm 0,0 km/h (0 Bft) O-NO 67 10 min 2 UV-I 269 W/m 3,2 km/h (1 Bft)
15.06.2011 08:50 18,3 C 74 % 1016,5 hPa 0,0 mm 0,0 km/h (0 Bft) O-NO 67 10 min 2 UV-I 322 W/m 1,6 km/h (1 Bft)
15.06.2011 09:00 18,6 C 73 % 1016,5 hPa 0,0 mm 0,0 km/h (0 Bft) O-NO 67 10 min 2 UV-I 357 W/m 1,6 km/h (1 Bft)
15.06.2011 09:10 18,7 C 74 % 1016,5 hPa 0,0 mm 0,0 km/h (0 Bft) O-NO 67 0 min 2 UV-I 230 W/m 1,6 km/h (1 Bft)
15.06.2011 09:20 19,1 C 72 % 1016,5 hPa 0,0 mm 0,0 km/h (0 Bft) O-NO 67 10 min 2 UV-I 336 W/m 1,6 km/h (1 Bft)
15.06.2011 09:30 19,6 C 71 % 1016,4 hPa 0,0 mm 0,0 km/h (0 Bft) O-NO 67 10 min 3 UV-I 485 W/m 3,2 km/h (1 Bft)
15.06.2011 09:40 20,4 C 66 % 1016,3 hPa 0,0 mm 0,0 km/h (0 Bft) O-NO 67 10 min 3 UV-I 506 W/m 3,2 km/h (1 Bft)
15.06.2011 09:50 20,6 C 63 % 1016,3 hPa 0,0 mm 0,0 km/h (0 Bft) O-NO 67 10 min 3 UV-I 534 W/m 3,2 km/h (1 Bft)
15.06.2011 10:00 21,0 C 62 % 1016,4 hPa 0,0 mm 0,0 km/h (0 Bft) O 90 10 min 3 UV-I 566 W/m 4,8 km/h (1 Bft)
15.06.2011 10:10 21,2 C 64 % 1016,4 hPa 0,0 mm 0,0 km/h (0 Bft) S 180 10 min 3 UV-I 499 W/m 6,4 km/h (2 Bft)
15.06.2011 10:20 21,6 C 64 % 1016,4 hPa 0,0 mm 0,0 km/h (0 Bft) S 180 10 min 3 UV-I 501 W/m 6,4 km/h (2 Bft)
15.06.2011 10:30 21,3 C 63 % 1016,4 hPa 0,0 mm 0,0 km/h (0 Bft) S 180 10 min 4 UV-I 559 W/m 4,8 km/h (1 Bft)
15.06.2011 10:40 21,3 C 65 % 1016,3 hPa 0,0 mm 0,0 km/h (0 Bft) S 180 10 min 4 UV-I 520 W/m 1,6 km/h (1 Bft)
15.06.2011 10:50 21,8 C 61 % 1016,2 hPa 0,0 mm 1,6 km/h (1 Bft) S 180 10 min 4 UV-I 619 W/m 11,3 km/h (2 Bft)
15.06.2011 11:00 22,0 C 61 % 1016,2 hPa 0,0 mm 3,2 km/h (1 Bft) W-NW 292 10 min 5 UV-I 738 W/m 11,3 km/h (2 Bft)
15.06.2011 11:10 22,2 C 60 % 1016,3 hPa 0,0 mm 1,6 km/h (1 Bft) NW 315 10 min 5 UV-I 807 W/m 11,3 km/h (2 Bft)
15.06.2011 11:20 22,4 C 59 % 1016,3 hPa 0,0 mm 1,6 km/h (1 Bft) NW 315 10 min 6 UV-I 742 W/m 9,7 km/h (2 Bft)
15.06.2011 11:30 22,4 C 58 % 1016,3 hPa 0,0 mm 3,2 km/h (1 Bft) NW 315 10 min 6 UV-I 874 W/m 11,3 km/h (2 Bft)
15.06.2011 11:40 22,6 C 57 % 1016,2 hPa 0,0 mm 3,2 km/h (1 Bft) W 270 10 min 6 UV-I 896 W/m 9,7 km/h (2 Bft)
15.06.2011 11:50 22,6 C 56 % 1016,1 hPa 0,0 mm 3,2 km/h (1 Bft) W 270 10 min 6 UV-I 875 W/m 11,3 km/h (2 Bft)
15.06.2011 12:00 23,2 C 55 % 1016,1 hPa 0,0 mm 1,6 km/h (1 Bft) S-SW 202 10 min 6 UV-I 867 W/m 9,7 km/h (2 Bft)
15.06.2011 12:10 23,3 C 54 % 1016,0 hPa 0,0 mm 3,2 km/h (1 Bft) W-SW 247 10 min 6 UV-I 833 W/m 9,7 km/h (2 Bft)
15.06.2011 12:20 23,3 C 56 % 1015,9 hPa 0,0 mm 4,8 km/h (1 Bft) W 270 10 min 7 UV-I 853 W/m 16,1 km/h (3 Bft)
15.06.2011 12:30 23,6 C 54 % 1015,9 hPa 0,0 mm 4,8 km/h (1 Bft) W-NW 292 10 min 7 UV-I 889 W/m 12,9 km/h (3 Bft)
15.06.2011 12:40 24,1 C 53 % 1015,8 hPa 0,0 mm 3,2 km/h (1 Bft) W 270 10 min 7 UV-I 904 W/m 11,3 km/h (2 Bft)
15.06.2011 12:50 24,1 C 53 % 1015,9 hPa 0,0 mm 4,8 km/h (1 Bft) W-SW 247 10 min 5 UV-I 555 W/m 11,3 km/h (2 Bft)
15.06.2011 13:00 23,9 C 55 % 1015,9 hPa 0,0 mm 3,2 km/h (1 Bft) W-SW 247 10 min 5 UV-I 485 W/m 16,1 km/h (3 Bft)
15.06.2011 13:10 23,7 C 53 % 1015,8 hPa 0,0 mm 4,8 km/h (1 Bft) W 270 0 min 3 UV-I 274 W/m 17,7 km/h (3 Bft)
15.06.2011 13:20 23,2 C 55 % 1015,9 hPa 0,0 mm 6,4 km/h (2 Bft) W 270 0 min 2 UV-I 218 W/m 14,5 km/h (3 Bft)
15.06.2011 13:30 23,0 C 55 % 1015,9 hPa 0,0 mm 4,8 km/h (1 Bft) W 270 0 min 2 UV-I 192 W/m 16,1 km/h (3 Bft)
15.06.2011 13:40 22,7 C 56 % 1015,9 hPa 0,0 mm 4,8 km/h (1 Bft) W 270 0 min 1 UV-I 104 W/m 19,3 km/h (3 Bft)
15.06.2011 13:50 22,4 C 58 % 1016,1 hPa 0,0 mm 4,8 km/h (1 Bft) W 270 0 min 1 UV-I 114 W/m 20,9 km/h (4 Bft)
15.06.2011 14:00 22,0 C 62 % 1016,2 hPa 0,0 mm 6,4 km/h (2 Bft) W 270 0 min 1 UV-I 134 W/m 22,5 km/h (4 Bft)
15.06.2011 14:10 21,4 C 68 % 1016,3 hPa 0,0 mm 8,0 km/h (2 Bft) W 270 0 min 1 UV-I 91 W/m 22,5 km/h (4 Bft)
15.06.2011 14:20 20,2 C 76 % 1016,3 hPa 0,0 mm 4,8 km/h (1 Bft) W 270 0 min 2 UV-I 193 W/m 17,7 km/h (3 Bft)
15.06.2011 14:30 20,0 C 73 % 1016,1 hPa 0,0 mm 1,6 km/h (1 Bft) W 270 0 min 3 UV-I 281 W/m 11,3 km/h (2 Bft)
15.06.2011 14:40 20,4 C 69 % 1015,9 hPa 0,0 mm 1,6 km/h (1 Bft) W 270 0 min 2 UV-I 220 W/m 6,4 km/h (2 Bft)
15.06.2011 14:50 20,6 C 70 % 1015,8 hPa 0,0 mm 0,0 km/h (0 Bft) W 270 0 min 2 UV-I 162 W/m 3,2 km/h (1 Bft)
15.06.2011 15:00 20,5 C 68 % 1015,8 hPa 0,0 mm 0,0 km/h (0 Bft) W 270 0 min 2 UV-I 186 W/m 4,8 km/h (1 Bft)
15.06.2011 15:10 20,7 C 68 % 1015,7 hPa 0,0 mm 0,0 km/h (0 Bft) W 270 0 min 2 UV-I 279 W/m 3,2 km/h (1 Bft)
15.06.2011 15:20 21,4 C 67 % 1015,5 hPa 0,0 mm 0,0 km/h (0 Bft) W 270 10 min 6 UV-I 564 W/m 4,8 km/h (1 Bft)
15.06.2011 15:30 22,8 C 61 % 1015,3 hPa 0,0 mm 1,6 km/h (1 Bft) O-SO 112 10 min 6 UV-I 1005 W/m 6,4 km/h (2 Bft)
15.06.2011 15:40 23,9 C 60 % 1015,2 hPa 0,0 mm 1,6 km/h (1 Bft) SO 135 10 min 6 UV-I 817 W/m 4,8 km/h (1 Bft)
15.06.2011 15:50 24,0 C 59 % 1015,0 hPa 0,0 mm 1,6 km/h (1 Bft) S 180 10 min 5 UV-I 846 W/m 4,8 km/h (1 Bft)
15.06.2011 16:00 24,6 C 56 % 1015,0 hPa 0,0 mm 1,6 km/h (1 Bft) S 180 10 min 5 UV-I 717 W/m 8,0 km/h (2 Bft)
15.06.2011 16:10 24,2 C 58 % 1014,9 hPa 0,0 mm 1,6 km/h (1 Bft) S-SW 202 10 min 5 UV-I 742 W/m 6,4 km/h (2 Bft)
15.06.2011 16:20 24,1 C 59 % 1014,8 hPa 0,0 mm 1,6 km/h (1 Bft) SW 225 10 min 4 UV-I 712 W/m 8,0 km/h (2 Bft)
15.06.2011 16:30 23,8 C 58 % 1014,7 hPa 0,0 mm 1,6 km/h (1 Bft) SW 225 0 min 3 UV-I 376 W/m 4,8 km/h (1 Bft)
15.06.2011 16:40 23,7 C 58 % 1014,6 hPa 0,0 mm 1,6 km/h (1 Bft) S-SW 202 0 min 3 UV-I 341 W/m 9,7 km/h (2 Bft)
15.06.2011 16:50 23,3 C 62 % 1014,6 hPa 0,0 mm 1,6 km/h (1 Bft) S-SW 202 0 min 2 UV-I 244 W/m 6,4 km/h (2 Bft)
15.06.2011 17:00 23,1 C 61 % 1014,5 hPa 0,0 mm 1,6 km/h (1 Bft) S-SW 202 0 min 1 UV-I 146 W/m 6,4 km/h (2 Bft)
15.06.2011 17:10 22,9 C 61 % 1014,5 hPa 0,0 mm 1,6 km/h (1 Bft) S-SW 202 0 min 1 UV-I 172 W/m 6,4 km/h (2 Bft)
15.06.2011 17:20 22,8 C 62 % 1014,6 hPa 0,0 mm 1,6 km/h (1 Bft) S-SW 202 0 min 1 UV-I 204 W/m 9,7 km/h (2 Bft)
15.06.2011 17:30 22,8 C 62 % 1014,6 hPa 0,0 mm 1,6 km/h (1 Bft) S-SW 202 10 min 2 UV-I 330 W/m 8,0 km/h (2 Bft)
15.06.2011 17:40 23,3 C 61 % 1014,5 hPa 0,0 mm 1,6 km/h (1 Bft) S-SW 202 10 min 2 UV-I 341 W/m 6,4 km/h (2 Bft)
15.06.2011 17:50 23,2 C 61 % 1014,4 hPa 0,0 mm 0,0 km/h (0 Bft) S-SW 202 0 min 1 UV-I 199 W/m 4,8 km/h (1 Bft)
15.06.2011 18:00 23,2 C 62 % 1014,2 hPa 0,0 mm 0,0 km/h (0 Bft) S-SW 202 0 min 1 UV-I 216 W/m 6,4 km/h (2 Bft)
15.06.2011 18:10 23,2 C 62 % 1014,2 hPa 0,0 mm 1,6 km/h (1 Bft) S-SW 202 10 min 2 UV-I 315 W/m 8,0 km/h (2 Bft)
15.06.2011 18:20 23,7 C 60 % 1014,2 hPa 0,0 mm 3,2 km/h (1 Bft) S 180 10 min 1 UV-I 301 W/m 11,3 km/h (2 Bft)
15.06.2011 18:30 23,4 C 61 % 1014,1 hPa 0,0 mm 3,2 km/h (1 Bft) SO 135 10 min 1 UV-I 308 W/m 9,7 km/h (2 Bft)
15.06.2011 18:40 23,2 C 61 % 1014,0 hPa 0,0 mm 3,2 km/h (1 Bft) S-SO 157 10 min 1 UV-I 297 W/m 11,3 km/h (2 Bft)
15.06.2011 18:50 23,3 C 61 % 1013,9 hPa 0,0 mm 1,6 km/h (1 Bft) S-SO 157 10 min 1 UV-I 336 W/m 9,7 km/h (2 Bft)
15.06.2011 19:00 23,6 C 59 % 1013,6 hPa 0,0 mm 1,6 km/h (1 Bft) S-SO 157 10 min 1 UV-I 360 W/m 8,0 km/h (2 Bft)
15.06.2011 19:10 23,6 C 62 % 1013,7 hPa 0,0 mm 1,6 km/h (1 Bft) S-SO 157 0 min 1 UV-I 169 W/m 8,0 km/h (2 Bft)
15.06.2011 19:20 23,2 C 63 % 1013,7 hPa 0,0 mm 1,6 km/h (1 Bft) SO 135 0 min 1 UV-I 156 W/m 9,7 km/h (2 Bft)
15.06.2011 19:30 23,0 C 64 % 1013,7 hPa 0,0 mm 1,6 km/h (1 Bft) S-SO 157 0 min 1 UV-I 146 W/m 8,0 km/h (2 Bft)
15.06.2011 19:40 22,8 C 64 % 1013,7 hPa 0,0 mm 1,6 km/h (1 Bft) S-SO 157 0 min 1 UV-I 121 W/m 8,0 km/h (2 Bft)
15.06.2011 19:50 22,6 C 65 % 1013,8 hPa 0,0 mm 1,6 km/h (1 Bft) S-SO 157 0 min 1 UV-I 109 W/m 8,0 km/h (2 Bft)
15.06.2011 20:00 22,4 C 66 % 1013,6 hPa 0,0 mm 0,0 km/h (0 Bft) S-SO 157 0 min 1 UV-I 83 W/m 3,2 km/h (1 Bft)
15.06.2011 20:10 22,2 C 67 % 1013,4 hPa 0,0 mm 1,6 km/h (1 Bft) S-SO 157 0 min 0 UV-I 81 W/m 6,4 km/h (2 Bft)
15.06.2011 20:20 22,1 C 67 % 1013,5 hPa 0,0 mm 0,0 km/h (0 Bft) S-SO 157 0 min 0 UV-I 72 W/m 3,2 km/h (1 Bft)
15.06.2011 20:30 21,9 C 68 % 1013,6 hPa 0,0 mm 0,0 km/h (0 Bft) S-SO 157 0 min 0 UV-I 63 W/m 1,6 km/h (1 Bft)
15.06.2011 20:40 21,7 C 69 % 1013,5 hPa 0,0 mm 0,0 km/h (0 Bft) S-SO 157 0 min 0 UV-I 49 W/m 3,2 km/h (1 Bft)
15.06.2011 20:50 21,6 C 70 % 1013,5 hPa 0,0 mm 0,0 km/h (0 Bft) S-SO 157 0 min 0 UV-I 39 W/m 3,2 km/h (1 Bft)
15.06.2011 21:00 21,3 C 71 % 1013,5 hPa 0,0 mm 0,0 km/h (0 Bft) S-SO 157 0 min 0 UV-I 28 W/m 3,2 km/h (1 Bft)
15.06.2011 21:10 21,2 C 71 % 1013,6 hPa 0,0 mm 0,0 km/h (0 Bft) S-SO 157 0 min 0 UV-I 19 W/m 1,6 km/h (1 Bft)
15.06.2011 21:20 21,1 C 72 % 1013,6 hPa 0,0 mm 0,0 km/h (0 Bft) S-SO 157 0 min 0 UV-I 9 W/m 3,2 km/h (1 Bft)
15.06.2011 21:30 20,9 C 73 % 1013,7 hPa 0,0 mm 0,0 km/h (0 Bft) S-SO 157 0 min 0 UV-I 9 W/m 1,6 km/h (1 Bft)
15.06.2011 21:40 20,7 C 73 % 1013,7 hPa 0,0 mm 0,0 km/h (0 Bft) S-SO 157 0 min 0 UV-I 14 W/m 3,2 km/h (1 Bft)
15.06.2011 21:50 20,5 C 73 % 1013,8 hPa 0,0 mm 0,0 km/h (0 Bft) S-SO 157 0 min 0 UV-I 12 W/m 3,2 km/h (1 Bft)
15.06.2011 22:00 20,2 C 74 % 1013,8 hPa 0,0 mm 0,0 km/h (0 Bft) S-SO 157 0 min 0 UV-I 0 W/m 3,2 km/h (1 Bft)
15.06.2011 22:10 19,9 C 75 % 1013,9 hPa 0,0 mm 0,0 km/h (0 Bft) S-SO 157 0 min 0 UV-I 0 W/m 1,6 km/h (1 Bft)
15.06.2011 22:20 19,6 C 75 % 1013,9 hPa 0,0 mm 0,0 km/h (0 Bft) S-SO 157 0 min 0 UV-I 0 W/m 3,2 km/h (1 Bft)
15.06.2011 22:30 19,4 C 76 % 1013,9 hPa 0,0 mm 0,0 km/h (0 Bft) S-SO 157 0 min 0 UV-I 0 W/m 3,2 km/h (1 Bft)
15.06.2011 22:40 19,2 C 76 % 1013,9 hPa 0,0 mm 0,0 km/h (0 Bft) S-SO 157 0 min 0 UV-I 0 W/m 1,6 km/h (1 Bft)
15.06.2011 22:50 19,1 C 77 % 1013,9 hPa 0,0 mm 0,0 km/h (0 Bft) S-SO 157 0 min 0 UV-I 0 W/m 3,2 km/h (1 Bft)
15.06.2011 23:00 18,9 C 77 % 1013,9 hPa 0,0 mm 0,0 km/h (0 Bft) S-SO 157 0 min 0 UV-I 0 W/m 1,6 km/h (1 Bft)
15.06.2011 23:10 18,8 C 78 % 1013,9 hPa 0,0 mm 0,0 km/h (0 Bft) S-SO 157 0 min 0 UV-I 0 W/m 1,6 km/h (1 Bft)
15.06.2011 23:20 18,6 C 78 % 1013,9 hPa 0,0 mm 0,0 km/h (0 Bft) N 0 0 min 0 UV-I 0 W/m 0,0 km/h (0 Bft)
15.06.2011 23:30 18,4 C 78 % 1013,9 hPa 0,0 mm 0,0 km/h (0 Bft) N 0 0 min 0 UV-I 0 W/m 0,0 km/h (0 Bft)
15.06.2011 23:40 18,2 C 79 % 1013,8 hPa 0,0 mm 0,0 km/h (0 Bft) N 0 0 min 0 UV-I 0 W/m 0,0 km/h (0 Bft)
15.06.2011 23:50 18,0 C 80 % 1013,8 hPa 0,0 mm 0,0 km/h (0 Bft) N 0 0 min 0 UV-I 0 W/m 0,0 km/h (0 Bft)
_ Min-Zeit 05:30 12:40 20:10 - 00:00 - - - - - 00:50
Minimum _ 11,9 C 53 % 1013,4 hPa - 0,0 km/h (0 Bft) - - - - - 0,0 km/h (0 Bft)
_ Max-Zeit 16:00 04:20 00:00 00:00 14:10 - - 07:30 12:30 15:30 14:00
Maximum _ 24,8 C 90 % 1018,0 hPa 0,0 mm 8,0 km/h
W (2 Bft)
- - 10 min 7 UV-I 1005 W/m 22,5 km/h
W (4 Bft)
Durchschnitt _ 18,7 C 73 % 1015,8 hPa #0,0 mm 1,0 km/h (0 Bft) W - #8:00 h 3 UV-I 330 W/m 5,0 km/h (1 Bft)